Terminal Aerodrome Forecast
Issued by NWS Cleveland, OH

Home | Current Version | Previous Version | Text Only | Print | Product List | Glossary Off
Versions: 1 2 3 4 5 6 7 8 9 10 11 12 13 14 15 16 17 18 19 20 21 22 23 24 25 26 27 28 29 30

000
FTUS41 KCLE 150500
TAFCLE
TAF
KCLE 150528Z 1506/1612 24005KT 5SM BR OVC025
     FM150800 22005KT 3SM BR OVC015
     FM151000 18004KT 2SM BR OVC006
     FM151500 17006KT 5SM HZ OVC012
     FM151900 15006KT P6SM OVC025=

USA.gov is the U.S. government's official web portal to all federal, state and local government web resources and services.